Location: Prairie State College
(41.5244°N, 87.6382°W)
Time: 21:16:49
(UTC-05:00)

ARGOS Delta rocket - Visible Passes

Search period start: 26 May 2017 00:00
Search period end: 05 June 2017 00:00
Orbit: 635 x 838 km, 96.5° (Epoch: 26 May)

Date Brightness Start Highest point End Pass type
(mag) Time Alt. Az. Time Alt. Az. Time Alt. Az.
26 May 4.1 00:04:34 10° NNE 00:09:51 69° E 00:09:51 69° E visible
26 May 6.1 01:44:41 10° NNW 01:47:57 17° WNW 01:49:28 15° W visible
26 May 5.3 23:20:09 10° NE 23:24:29 27° E 23:24:29 27° E visible
27 May 5.0 00:58:27 10° N 01:03:22 39° WNW 01:04:06 37° W visible
27 May 6.3 22:38:19 10° ENE 22:39:07 10° E 22:39:07 10° E visible
28 May 4.0 00:13:08 10° NNE 00:18:31 85° E 00:18:44 82° SSE visible
28 May 6.3 01:53:51 10° NNW 01:56:27 14° WNW 01:58:21 12° W visible
28 May 5.0 23:28:32 10° NNE 23:33:22 34° E 23:33:22 34° E visible
29 May 5.3 01:07:13 10° N 01:11:56 32° WNW 01:12:59 30° W visible
29 May 6.1 22:45:21 10° ENE 22:47:59 14° E 22:47:59 14° E visible
30 May 4.1 00:21:45 10° N 00:27:09 79° WNW 00:27:36 72° SW visible
30 May 6.5 02:03:24 10° NW 02:04:55 11° WNW 02:06:25 10° WNW visible
30 May 4.7 23:36:58 10° NNE 23:42:06 42° E 23:42:13 42° E visible
31 May 5.6 01:16:03 10° NNW 01:20:29 27° WNW 01:21:51 24° W visible
31 May 5.9 22:53:15 10° NE 22:56:46 17° E 22:56:51 17° E visible
01 Jun 4.3 00:30:24 10° N 00:35:46 64° WNW 00:36:28 58° WSW visible
01 Jun 4.4 23:45:27 10° NNE 23:50:47 53° E 23:51:05 52° ESE visible
02 Jun 5.9 01:24:56 10° NNW 01:29:00 22° WNW 01:30:42 19° W visible
02 Jun 5.6 23:01:23 10° NE 23:05:31 21° E 23:05:42 21° E visible
03 Jun 4.6 00:39:06 10° N 00:44:22 51° WNW 00:45:19 46° WSW visible
03 Jun 4.1 23:54:00 10° NNE 23:59:27 66° E 23:59:56 62° SE visible
04 Jun 6.1 01:33:55 10° NNW 01:37:31 18° WNW 01:39:33 15° W visible
04 Jun 5.3 23:09:40 10° NE 23:14:15 26° E 23:14:33 26° E visible
